DW8295 Weather Reports


Display with metric or nautical units.
time (UTC)temp
F
wind
direction
speed
MPH
gust
MPH
rain 1hr
in
rain 24hr
in
rain mn
in
humidity
%
barometer
mb
20260504192452 69 254 1.0 6.0 0.00 0.00 0.00 38 1004.2
20260504191950 69 254 2.0 8.0 0.00 0.00 0.00 39 1004.3
20260504191719 68 261 2.0 8.0 0.00 0.00 0.00 39 1004.3
20260504191207 68 274 4.0 11.0 0.00 0.00 0.00 38 1004.4
20260504190438 68 277 4.0 12.0 0.00 0.00 0.00 38 1004.5
20260504190202 68 248 3.0 12.0 0.00 0.00 0.00 37 1004.5
20260504185437 67 307 4.0 16.0 0.00 0.00 0.00 38 1004.5
20260504184934 68 263 6.0 16.0 0.00 0.00 0.00 37 1004.5
20260504184659 68 219 5.0 17.0 0.00 0.00 0.00 36 1004.5
20260504184201 68 215 5.0 17.0 0.00 0.00 0.00 36 1004.5
20260504183434 69 269 6.0 17.0 0.00 0.00 0.00 35 1004.5
20260504182935 69 246 6.0 15.0 0.00 0.00 0.00 35 1004.3
20260504182434 69 264 7.0 14.0 0.00 0.00 0.00 34 1004.3
20260504181934 69 254 7.0 15.0 0.00 0.00 0.00 35 1004.3
20260504181436 69 278 8.0 15.0 0.00 0.00 0.00 35 1004.3
20260504180947 69 336 7.0 18.0 0.00 0.00 0.00 35 1004.4
20260504180433 69 234 6.0 18.0 0.00 0.00 0.00 35 1004.3
20260504175934 69 279 6.0 16.0 0.00 0.00 0.00 35 1004.3
20260504175434 69 261 7.0 21.0 0.00 0.00 0.00 36 1004.3
20260504174930 68 260 7.0 21.0 0.00 0.00 0.00 36 1004.2
20260504174431 68 240 5.0 13.0 0.00 0.00 0.00 38 1004.2
20260504173930 67 231 4.0 9.0 0.00 0.00 0.00 45 1004.2
20260504173431 66 213 5.0 12.0 0.00 0.00 0.00 46 1004.3
20260504172925 66 252 6.0 13.0 0.00 0.00 0.00 47 1004.3
20260504172424 65 230 6.0 14.0 0.00 0.00 0.00 50 1004.3
20260504171924 64 169 5.0 14.0 0.00 0.00 0.00 48 1004.4
20260504171424 63 238 5.0 15.0 0.00 0.00 0.00 51 1004.3
20260504170924 62 244 7.0 21.0 0.00 0.00 0.00 51 1004.4
20260504170424 61 201 7.0 22.0 0.00 0.00 0.00 53 1004.5
20260504170147 63 184 6.0 22.0 0.00 0.00 0.00 51 1004.5
20260504160417 61 165 6.0 12.0 0.00 0.00 0.00 59 1005.1
20260504150305 59 185 5.0 11.0 0.00 0.00 0.00 59 1005.9
20260504140659 57 185 4.0 13.0 0.00 0.00 0.00 57 1006.9
20260504140155 58 186 4.0 10.0 0.00 0.00 0.00 57 1006.9
20260504130549 55 226 7.0 14.0 0.00 0.00 0.00 57 1007.3
20260504120225 52 251 4.0 13.0 0.00 0.00 0.00 62 1008.1
20260504110452 48 245 4.0 10.0 0.00 0.00 0.00 63 1008.0
20260504100341 45 254 0.0 5.0 0.00 0.00 0.00 66 1008.0
20260504081305 42 286 0.0 3.0 0.00 0.00 0.00 65 1007.8
20260504080812 42 286 1.0 6.0 0.00 0.00 0.00 66 1007.8
20260504080253 42 287 1.0 6.0 0.00 0.00 0.00 66 1007.7
20260504070239 41 279 1.0 6.0 0.00 0.00 0.00 66 1007.7
20260504050715 40 279 0.0 3.0 0.00 0.00 0.00 71 1007.6
20260504050213 40 279 0.0 3.0 0.00 0.00 0.00 71 1007.6
20260504045713 40 280 0.0 7.0 0.00 0.00 0.00 71 1007.6
20260504045214 40 280 0.0 7.0 0.00 0.00 0.00 71 1007.6
20260504044714 40 282 0.0 4.0 0.00 0.00 0.00 72 1007.6
20260504044214 39 252 1.0 8.0 0.00 0.00 0.00 72 1007.5
20260504043713 39 252 1.0 8.0 0.00 0.00 0.00 73 1007.5
20260504043212 39 296 0.0 2.0 0.00 0.00 0.00 73 1007.4
20260504042714 39 296 0.0 2.0 0.00 0.00 0.00 73 1007.5
20260504042209 39 296 0.0 3.0 0.00 0.00 0.00 73 1007.4
20260504041709 39 296 0.0 3.0 0.00 0.00 0.00 73 1007.4
20260504041432 39 296 0.0 3.0 0.00 0.00 0.00 74 1007.4
20260504040709 38 296 0.0 3.0 0.00 0.00 0.00 74 1007.4
20260504040427 38 297 0.0 2.0 0.00 0.00 0.00 74 1007.4
20260504035710 38 298 0.0 2.0 0.00 0.00 0.00 74 1007.3
20260504035209 38 298 0.0 2.0 0.00 0.00 0.00 74 1007.2
20260504034710 38 298 0.0 2.0 0.00 0.00 0.00 74 1007.2
20260504034207 38 298 0.0 0.0 0.00 0.00 0.00 74 1007.1
20260504033707 38 297 0.0 0.0 0.00 0.00 0.00 74 1007.2
20260504033200 38 297 0.0 0.0 0.00 0.00 0.00 74 1007.1
20260504032654 38 297 0.0 0.0 0.00 0.00 0.00 74 1007.2
20260504032148 38 297 0.0 0.0 0.00 0.00 0.00 74 1007.2
20260504031642 38 297 0.0 0.0 0.00 0.00 0.00 74 1007.1
20260504031136 38 297 0.0 1.0 0.00 0.00 0.00 73 1007.2
20260504030630 39 297 0.0 1.0 0.00 0.00 0.00 73 1007.1
20260504030124 39 297 0.0 0.0 0.00 0.00 0.00 72 1007.1
20260504025619 39 297 0.0 0.0 0.00 0.00 0.00 72 1007.1
20260504025112 39 297 0.0 0.0 0.00 0.00 0.00 71 1007.0
20260504024606 40 297 0.0 0.0 0.00 0.00 0.00 71 1007.0
20260504024101 40 297 0.0 0.0 0.00 0.00 0.00 71 1007.1
20260504024040 40 297 0.0 0.0 0.00 0.00 0.00 71 1007.0
20260504023048 40 297 0.0 0.0 0.00 0.00 0.00 70 1007.1
20260504022802 40 297 0.0 0.0 0.00 0.00 0.00 69 1007.0
20260504022036 41 297 0.0 0.0 0.00 0.00 0.00 68 1007.1
20260504021530 41 297 0.0 0.0 0.00 0.00 0.00 68 1007.1
20260504021024 42 297 0.0 0.0 0.00 0.00 0.00 67 1007.1
20260504021005 42 297 0.0 0.0 0.00 0.00 0.00 66 1007.1
20260504020011 43 297 0.0 0.0 0.00 0.00 0.00 65 1007.1
20260504015504 43 297 0.0 0.0 0.00 0.00 0.00 64 1007.1
20260504015222 44 297 0.0 0.0 0.00 0.00 0.00 63 1007.1
20260504014453 44 297 0.0 0.0 0.00 0.00 0.00 61 1007.0
20260504013946 44 297 0.0 0.0 0.00 0.00 0.00 60 1007.0
20260504013442 45 297 0.0 1.0 0.00 0.00 0.00 59 1007.0
20260504012934 45 297 0.0 5.0 0.00 0.00 0.00 58 1007.0
20260504012429 45 297 1.0 5.0 0.00 0.00 0.00 58 1006.9
20260504011922 45 304 1.0 5.0 0.00 0.00 0.00 57 1006.8
20260504011415 46 305 0.0 4.0 0.00 0.00 0.00 57 1006.7
20260504011132 46 305 0.0 4.0 0.00 0.00 0.00 56 1006.7
20260504010404 46 304 0.0 4.0 0.00 0.00 0.00 55 1006.6
20260504005900 46 306 0.0 4.0 0.00 0.00 0.00 55 1006.5
20260504005609 47 306 0.0 4.0 0.00 0.00 0.00 54 1006.4
20260504004846 47 317 0.0 5.0 0.00 0.00 0.00 53 1006.3
20260504004340 47 317 1.0 5.0 0.00 0.00 0.00 52 1006.2
20260504003836 48 283 1.0 7.0 0.00 0.00 0.00 52 1006.1
20260504003328 48 283 2.0 10.0 0.00 0.00 0.00 51 1006.0
20260504002821 48 284 3.0 10.0 0.00 0.00 0.00 50 1005.9
20260504002537 49 348 3.0 13.0 0.00 0.00 0.00 50 1005.9
20260504001811 49 323 3.0 13.0 0.00 0.00 0.00 49 1005.8
20260504001304 49 322 4.0 12.0 0.00 0.00 0.00 49 1005.8
20260504000758 49 313 3.0 12.0 0.00 0.00 0.00 49 1005.7
20260504000512 49 299 3.0 13.0 0.00 0.00 0.00 49 1005.5
20260503235746 49 333 4.0 14.0 0.00 0.00 0.00 49 1005.4
20260503235241 49 311 5.0 14.0 0.00 0.00 0.00 49 1005.3
20260503234736 50 301 4.0 13.0 0.00 0.00 0.00 49 1005.2
20260503234229 50 275 3.0 9.0 0.00 0.00 0.00 49 1005.1
20260503233723 50 294 3.0 10.0 0.00 0.00 0.00 48 1005.0
20260503233448 51 321 4.0 12.0 0.00 0.00 0.00 48 1004.9
20260503232711 51 311 5.0 15.0 0.00 0.00 0.00 47 1004.8
20260503232205 51 334 5.0 15.0 0.00 0.00 0.00 46 1004.7
20260503231658 51 292 4.0 11.0 0.00 0.00 0.00 47 1004.6
20260503231153 51 323 5.0 16.0 0.00 0.00 0.00 46 1004.4
20260503230648 52 347 7.0 20.0 0.00 0.00 0.00 45 1004.4
20260503230620 52 5 6.0 20.0 0.00 0.00 0.00 45 1004.3
20260503225855 52 315 5.0 16.0 0.00 0.00 0.00 46 1004.2
20260503225129 52 321 5.0 16.0 0.00 0.00 0.00 44 1004.2
20260503224622 52 325 5.0 16.0 0.00 0.00 0.00 45 1004.0
20260503224116 52 266 6.0 16.0 0.00 0.00 0.00 45 1004.0
20260503223610 52 342 5.0 15.0 0.00 0.00 0.00 45 1003.9
20260503223104 52 336 6.0 17.0 0.00 0.00 0.00 47 1003.9
20260503222558 52 292 6.0 17.0 0.00 0.00 0.00 46 1003.8
20260503222053 52 315 6.0 15.0 0.00 0.00 0.00 47 1003.8
20260503221546 52 288 5.0 14.0 0.00 0.00 0.00 47 1003.6
20260503221041 52 330 6.0 16.0 0.00 0.00 0.00 48 1003.6
20260503220534 52 338 6.0 16.0 0.00 0.00 0.00 49 1003.5
20260503220029 52 316 6.0 14.0 0.00 0.00 0.00 49 1003.5
20260503215524 52 308 7.0 14.0 0.00 0.00 0.00 49 1003.4
20260503215240 52 284 5.0 14.0 0.00 0.00 0.00 49 1003.4
20260503214510 53 307 4.0 13.0 0.00 0.00 0.00 49 1003.3
20260503214005 53 355 4.0 13.0 0.00 0.00 0.00 48 1003.2
20260503213459 53 335 4.0 19.0 0.00 0.00 0.00 49 1003.3
20260503212954 53 294 4.0 19.0 0.00 0.00 0.00 48 1003.3
20260503212447 53 284 5.0 15.0 0.00 0.00 0.00 49 1003.3
20260503211940 53 317 6.0 15.0 0.00 0.00 0.00 48 1003.2
20260503211438 53 323 5.0 14.0 0.00 0.00 0.00 48 1003.2
20260503211157 53 346 5.0 14.0 0.00 0.00 0.00 48 1003.1
20260503210655 53 351 4.0 14.0 0.00 0.00 0.00 49 1003.1
20260503210203 53 340 7.0 18.0 0.00 0.00 0.00 49 1003.1
20260503205438 53 304 8.0 18.0 0.00 0.00 0.00 47 1003.1
20260503205431 53 309 8.0 15.0 0.00 0.00 0.00 47 1003.1
20260503204438 53 302 7.0 15.0 0.00 0.00 0.00 47 1003.1
20260503203938 53 335 6.0 15.0 0.00 0.00 0.00 47 1003.0
20260503203657 54 345 7.0 15.0 0.00 0.00 0.00 47 1003.0
20260503203200 54 334 6.0 15.0 0.00 0.00 0.00 47 1003.0
20260503202440 54 313 6.0 15.0 0.00 0.00 0.00 48 1003.0
20260503201938 54 338 6.0 15.0 0.00 0.00 0.00 48 1003.0
20260503201439 54 342 6.0 17.0 0.00 0.00 0.00 48 1003.0
20260503200939 54 344 6.0 17.0 0.00 0.00 0.00 47 1003.1
20260503200438 55 319 7.0 24.0 0.00 0.00 0.00 49 1003.1
20260503195939 55 54 7.0 24.0 0.00 0.00 0.00 49 1003.0
20260503195702 55 339 8.0 17.0 0.00 0.00 0.00 48 1003.0
20260503194932 55 289 8.0 16.0 0.00 0.00 0.00 50 1003.0
20260503194430 54 333 7.0 16.0 0.00 0.00 0.00 51 1003.1
20260503194412 53 322 7.0 22.0 0.00 0.00 0.00 52 1003.3
20260503193649 52 330 9.0 22.0 0.00 0.00 0.00 53 1003.3